Kasif Kalkavan — V7IX7 — position and weather

sailwx.info

Track history (hours):
 
Tides and Currents Weather Stations Pressure Air Temp Water Temp Dewpoint Dewpoint Depression Visibility Wind Speed Wind Dir Waves Ship Positions

Kasif Kalkavan

Last reported at 2014-Oct-14 15:33 UTC. Time now 2014-Oct-20 04:37 UTC.
Position N 41°18' E 029°34'.

Type: Cargo ship. MMSI: 538090190.

Date/timePositionNaut miles runAvg speedWind from/ knotsBaromVisibWave heightAir tempDewpointWater temp
2014-Oct-14 15:33N 41°18' E 029°34'1414.2
2014-Oct-14 14:33N 41°15' E 029°15'133 3.8
2014-Oct-13 03:28N 40°19' E 026°36'3611.9
2014-Oct-13 00:25N 39°57' E 025°58'1213.4
2014-Oct-12 23:33N 39°47' E 025°51'14113.8
2014-Oct-12 13:22N 37°41' E 024°32'1112.9
2014-Oct-12 12:33N 37°32' E 024°25'1413.4
2014-Oct-12 11:29N 37°20' E 024°14'1714.3
2014-Oct-12 10:16N 37°06' E 024°01'1114.0
2014-Oct-12 09:30N 36°58' E 023°53'42614.2
2014-Oct-11 03:29N 35°50' E 015°11'1414.9
2014-Oct-11 02:32N 35°48' E 014°54'  
2014-Oct-06 16:15N 37°03' E 023°43'1114.7
2014-Oct-06 15:30N 37°13' E 023°50'1414.3
2014-Oct-06 14:31N 37°25' E 023°59'1414.2
2014-Oct-06 13:33N 37°37' E 024°07'1414.3
2014-Oct-06 12:32N 37°47' E 024°21'  
Track history (hours):
 
Tides and Currents Weather Stations Pressure Air Temp Water Temp Dewpoint Dewpoint Depression Visibility Wind Speed Wind Dir Waves Ship Positions

Kasif Kalkavan

Last reported at 2014-Oct-14 15:33 UTC. Time now 2014-Oct-20 04:37 UTC.
Position N 41°18' E 029°34'.

Type: Cargo ship. MMSI: 538090190.

Date/timePositionNaut miles runAvg speedWind from/ knotsBaromVisibWave heightAir tempDewpointWater temp
2014-Oct-14 15:33N 41°18' E 029°34'1414.2
2014-Oct-14 14:33N 41°15' E 029°15'133 3.8
2014-Oct-13 03:28N 40°19' E 026°36'3611.9
2014-Oct-13 00:25N 39°57' E 025°58'1213.4
2014-Oct-12 23:33N 39°47' E 025°51'14113.8
2014-Oct-12 13:22N 37°41' E 024°32'1112.9
2014-Oct-12 12:33N 37°32' E 024°25'1413.4
2014-Oct-12 11:29N 37°20' E 024°14'1714.3
2014-Oct-12 10:16N 37°06' E 024°01'1114.0
2014-Oct-12 09:30N 36°58' E 023°53'42614.2
2014-Oct-11 03:29N 35°50' E 015°11'1414.9
2014-Oct-11 02:32N 35°48' E 014°54'  
2014-Oct-06 16:15N 37°03' E 023°43'1114.7
2014-Oct-06 15:30N 37°13' E 023°50'1414.3
2014-Oct-06 14:31N 37°25' E 023°59'1414.2
2014-Oct-06 13:33N 37°37' E 024°07'1414.3
2014-Oct-06 12:32N 37°47' E 024°21'  

Dump ship's entire track history